Home   Weather   Rehoboth Beach   Past weeks
Flag for USA

Past Weather in Rehoboth Beach, Delaware, USA — Yesterday and Last 2 Weeks

Now
63 °F

Light rain. Mostly cloudy.


Feels Like: 63 °F
Forecast: 70 / 59 °F
Wind: 5 mph from Southeast

Location: Sussex County Airport

Current Time: Oct 13, 2019 at 9:09:41 pm

Latest Report: Oct 13, 2019 at 7:54 pm


Visibility: 10 mi

Pressure: 30.01 "Hg

Humidity: 97%

Dew Point: 62 °F

Location of Rehoboth BeachLocation

Past Weather in Rehoboth Beach — Graph

°F

Rehoboth Beach Temperature Yesterday

Maximum temperature yesterday: 77 °F (at 4:54 pm)
Minimum temperature yesterday: 48 °F (at 5:54 am)
Average temperature yesterday: 61 °F

High & Low Weather Summary for the Past Weeks

 TemperatureHumidityPressure
High96 °F (Oct 2, 2:54 pm)100% (Sep 29, 12:54 am)30.41 "Hg (Sep 29, 12:54 am)
Low48 °F (Oct 12, 5:54 am)35% (Oct 2, 2:54 pm)29.81 "Hg (Oct 2, 4:54 pm)
Average68 °F74%30.12 "Hg
* Reported Sep 28 7:54 pm — Oct 13 7:54 pm, Rehoboth Beach. Weather by CustomWeather, © 2019

Note: Actual official high and low records may vary slightly from our data, if they occured in-between our weather recording intervals... More about our weather records

Advertising

Rehoboth Beach Weather History for the Previous 24 Hours

Scroll right to see more
 ConditionsComfort  
Time TempWeatherWind HumidityBarometerVisibility
7:54 pm
Sun, Oct 13
63 °FLight rain. Mostly cloudy.5 mph97%30.01 "Hg10 mi
6:54 pm63 °FLight rain. Mostly cloudy.5 mph93%30.02 "Hg10 mi
6:32 pm64 °FLight rain. Mostly cloudy.6 mph84%30.03 "Hg6 mi
5:54 pm65 °FOvercast.9 mph78%30.03 "Hg10 mi
5:28 pm66 °FMostly cloudy.9 mph75%30.03 "Hg10 mi
4:54 pm67 °FOvercast.10 mph73%30.03 "Hg10 mi
3:54 pm67 °FPartly sunny.10 mph68%30.04 "Hg10 mi
2:54 pm67 °FPartly sunny.5 mph63%30.05 "Hg10 mi
1:54 pm67 °FMostly cloudy.8 mph57%30.06 "Hg10 mi
12:54 pm66 °FPartly sunny.8 mph56%30.09 "Hg10 mi
11:54 am66 °FScattered clouds.6 mph59%30.10 "Hg10 mi
10:54 am61 °FMostly cloudy.5 mph65%30.11 "Hg10 mi
9:54 am60 °FScattered clouds.5 mph65%30.12 "Hg10 mi
8:54 am56 °FPartly sunny.6 mph67%30.14 "Hg10 mi
7:54 am55 °FMostly cloudy.5 mph67%30.11 "Hg10 mi
6:54 am55 °FPartly cloudy.5 mph69%30.10 "Hg10 mi
5:54 am56 °FOvercast.3 mph70%30.09 "Hg10 mi
4:54 am56 °FPartly cloudy.5 mph77%30.07 "Hg10 mi
3:54 am57 °FPassing clouds.5 mph74%30.05 "Hg10 mi
2:54 am58 °FClear.5 mph84%30.05 "Hg10 mi
1:54 am56 °FPassing clouds.No wind93%30.04 "Hg10 mi
12:54 am56 °FPassing clouds.No wind93%30.03 "Hg10 mi
11:54 pm
Sat, Oct 12
58 °FPassing clouds.No wind90%30.03 "Hg10 mi
10:54 pm58 °FClear.No wind87%30.02 "Hg10 mi
9:54 pm60 °FClear.No wind83%30.02 "Hg10 mi
Weather by CustomWeather, © 2019

See weather overview